St Gallen Altenrhein Airport LSZR

Flugplatz Daten

Name: St Gallen Altenrhein Airport

Ident: LSZR

Lat: 47,48500061

Long: 9,560770035

Platzhöhe: 1306 ft

IataCode: ACH

City: Altenrhein

Metar

2022/08/10 20:20
LSZR 102020Z AUTO 22004KT 160V280 9999 NCD 19/12 Q1021

Taf

Gewünschte Webcam nicht vorhanden? Dann fügen Sie eine hinzu. Sie wird dann so schnell wie möglich freigeschaltet
Url: Title: